[[{"header":{"parameterUnit":"m.s-1","parameterCategory":1,"la1":30.2991,"la2":30.254,"lo1":-89.0895,"lo2":-89.0444,"dy":0.0017,"dx":0.0017,"nx":28,"ny":28,"refTime":"2024-05-16T03:00:00:Z","depth":0,"parameterNumber":2,"parameterNumberName":"U-component_of_WINDS"},"data":[0,0,0,0,0,0,0,0,0,0,0,0,0,0,0,0,0,0,0,0,0,0,0,0,0,0,0,0,0,0,0,0,0,0,0,0,0,0,0,0,0,0,0,0,0,0,0,0,0,0,0,0,0,0,0,0,0,0,-1.674,-1.6739,0,-1.6679,-1.6678,-1.6678,-1.6603,-1.6602,-1.6601,-1.66,-1.6538,-1.6538,-1.6537,0,0,0,0,0,0,0,0,0,0,0,0,0,-1.6789,-1.6789,-1.674,-1.6739,-1.6738,-1.6679,-1.6678,-1.6678,-1.6604,-1.6602,-1.6601,-1.6599,-1.6538,-1.6538,-1.6537,0,0,0,0,0,0,0,0,0,0,0,0,0,-1.6752,-1.6788,-1.674,-1.6694,-1.6689,-1.6679,-1.6678,-1.6677,-1.6604,-1.6602,-1.66,-1.6599,-1.6539,-1.6538,-1.6537,-1.6567,0,0,-1.6534,-1.6534,0,0,0,0,0,0,0,0,-1.6754,-1.675,-1.6702,-1.6697,-1.6692,-1.6647,-1.6673,-1.664,-1.6604,-1.6636,-1.66,-1.6598,-1.6576,-1.6572,-1.6564,-1.6564,-1.6561,-1.6534,-1.6534,-1.6533,-1.6533,0,0,0,0,0,0,0,-1.6757,-1.6753,-1.6716,-1.6701,-1.6695,-1.6676,-1.6669,-1.6667,-1.6617,-1.6633,-1.6628,-1.6622,-1.6573,-1.6565,-1.6562,-1.6561,-1.6534,-1.6534,-1.6533,-1.6533,-1.6578,-1.6579,0,0,0,0,0,0,-1.6767,-1.6755,-1.6718,-1.6714,-1.6719,-1.6677,-1.6668,-1.6663,-1.6617,-1.6608,-1.6623,-1.6619,-1.6568,-1.6563,-1.656,-1.6589,-1.6534,-1.6533,-1.6532,-1.6576,-1.6578,-1.658,0,0,0,0,0,0,-1.6768,-1.6764,-1.672,-1.6733,-1.6726,-1.6678,-1.6672,-1.6663,-1.6655,-1.6609,-1.6599,-1.6625,-1.6566,-1.6561,-1.6565,-1.6586,-1.6532,-1.6532,-1.6574,-1.6577,-1.6579,-1.665,0,0,0,0,0,0,-1.677,-1.6765,-1.6777,-1.6734,-1.6726,-1.6727,-1.6674,-1.6663,-1.6654,-1.6647,-1.6608,-1.66,-1.6564,-1.6566,-1.6564,-1.6584,-1.6531,-1.6572,-1.6575,-1.6578,-1.6646,-1.6655,-1.6662,0,0,0,0,0,-1.6772,-1.68,-1.6778,-1.6773,-1.6739,-1.6728,-1.6724,-1.6682,-1.6656,-1.6667,-1.6636,-1.6601,-1.6584,-1.6568,-1.6564,-1.6584,-1.657,-1.6574,-1.6578,-1.6642,-1.6653,-1.6662,0,0,0,0,0,0,-1.6847,-1.6793,-1.6768,-1.6783,-1.6761,-1.6716,-1.6728,-1.6696,-1.6681,-1.6675,-1.6624,-1.6616,-1.6625,-1.6605,-1.6587,-1.6609,-1.6572,-1.6575,-1.6622,-1.6632,-1.664,-1.6644,-1.653,0,0,0,0,0,-1.6865,-1.6862,-1.6815,-1.6833,-1.6822,-1.6778,-1.6771,-1.6741,-1.6716,-1.6706,-1.6676,-1.6653,-1.6642,-1.6636,-1.6623,-1.6642,-1.6631,-1.6654,-1.6663,-1.667,-1.6673,-1.6678,-1.6687,-1.6592,-1.6592,-1.6592,0,0,-1.6903,-1.6873,-1.6874,-1.6847,-1.6826,-1.6822,-1.677,-1.6769,-1.6765,-1.6706,-1.6707,-1.6684,-1.6654,-1.6665,-1.6668,-1.6648,-1.6696,-1.6675,-1.6681,-1.668,-1.6683,-1.6692,-1.67,-1.6595,-1.6594,-1.6594,0,0,-1.697,-1.6948,-1.6959,-1.6938,-1.6907,-1.6876,-1.6879,-1.6838,-1.682,-1.682,-1.6775,-1.6769,-1.6753,-1.6732,-1.672,-1.6775,-1.6741,-1.6773,-1.6817,-1.6822,-1.683,-1.6836,-1.6853,-1.6861,-1.6776,-1.6777,-1.6777,0,-1.7021,-1.7014,-1.6969,-1.6969,-1.6957,-1.6903,-1.6912,-1.6895,-1.6861,-1.6854,-1.6832,-1.6807,-1.6784,-1.6787,-1.6801,-1.6793,-1.6793,-1.6777,-1.6832,-1.6838,-1.6843,-1.6859,-1.6866,-1.678,-1.678,-1.678,-1.6779,0,-1.7076,-1.7072,-1.7085,-1.7052,-1.7042,-1.7047,-1.7002,-1.6997,-1.6967,-1.6938,-1.6937,-1.6906,-1.6885,-1.6884,-1.6856,-1.6883,-1.6871,-1.6842,-1.6804,-1.6857,-1.6871,-1.6877,-1.6786,-1.6785,-1.6783,-1.6783,0,0,-1.719,-1.7131,-1.7136,-1.7119,-1.7079,-1.7074,-1.7076,-1.7055,-1.705,-1.7028,-1.7027,-1.7013,-1.6984,-1.697,-1.6938,-1.6944,-1.6986,-1.6913,-1.6911,-1.6926,-1.701,-1.7031,-1.7039,-1.6963,-1.6964,-1.6965,-1.7012,0,-1.7248,-1.7247,-1.7206,-1.7217,-1.721,-1.7157,-1.7158,-1.7133,-1.7106,-1.7096,-1.7065,-1.7055,-1.7019,-1.701,-1.7013,-1.6981,-1.7002,-1.6977,-1.696,-1.696,-1.6968,-1.7047,-1.707,-1.7116,-1.7017,-1.7018,-1.7019,0,-1.7315,-1.7296,-1.7306,-1.7263,-1.7258,-1.726,-1.7236,-1.7228,-1.7197,-1.7176,-1.7159,-1.7123,-1.7119,-1.7084,-1.7077,-1.7061,-1.7051,-1.7034,-1.7035,-1.7031,-1.6992,-1.7043,-1.713,-1.7136,-1.7028,-1.7027,-1.7026,0,-1.7394,-1.737,-1.7372,-1.736,-1.7311,-1.7313,-1.7292,-1.726,-1.7248,-1.7227,-1.7219,-1.7198,-1.7186,-1.7169,-1.7127,-1.7106,-1.7124,-1.7086,-1.7105,-1.7106,-1.7111,-1.7111,-1.7196,-1.7108,-1.7108,-1.7108,-1.7108,0,-1.7462,-1.747,-1.7407,-1.7408,-1.7414,-1.7366,-1.7373,-1.7347,-1.7318,-1.7312,-1.7265,-1.726,-1.7206,-1.7194,-1.7161,-1.7159,-1.7155,-1.7137,-1.7128,-1.714,-1.7142,-1.7132,-1.7127,-1.711,-1.7109,-1.7109,-1.7109,0,-1.7551,-1.7509,-1.7507,-1.746,-1.7448,-1.7454,-1.7413,-1.7411,-1.738,-1.7373,-1.7368,-1.732,-1.7303,-1.726,-1.7233,-1.721,-1.7216,-1.7201,-1.7227,-1.722,-1.7241,-1.7239,-1.7321,-1.7328,-1.7239,-1.724,-1.724,0,-1.7596,-1.76,-1.7553,-1.7545,-1.7526,-1.7515,-1.7503,-1.7455,-1.7444,-1.7407,-1.7409,-1.7389,-1.737,-1.7346,-1.7308,-1.7286,-1.7268,-1.7298,-1.7264,-1.7275,-1.7265,-1.7265,-1.7264,-1.7305,-1.7306,-1.7307,-1.7308,0,-1.768,-1.7658,-1.7643,-1.762,-1.7606,-1.7586,-1.7562,-1.7559,-1.7504,-1.7494,-1.7476,-1.7461,-1.7432,-1.7412,-1.7383,-1.736,-1.7324,-1.7319,-1.7322,-1.7334,-1.7348,-1.7338,-1.7245,-1.7317,-1.7316,-1.7316,-1.7315,-1.7315,-1.7746,-1.7747,-1.7712,-1.7696,-1.7673,-1.7651,-1.7646,-1.7614,-1.7599,-1.7571,-1.7543,-1.7528,-1.7494,-1.7452,-1.7431,-1.7417,-1.7399,-1.7404,-1.7405,-1.7406,-1.7411,-1.7351,-1.7412,-1.7412,-1.7412,-1.7411,-1.7411,0,-1.7826,-1.7801,-1.7786,-1.7754,-1.774,-1.7708,-1.7679,-1.767,-1.7657,-1.7628,-1.761,-1.7588,-1.7568,-1.7527,-1.7502,-1.7498,-1.7481,-1.7493,-1.7492,-1.7486,-1.743,-1.7429,-1.7507,-1.7507,-1.7507,-1.7507,-1.7507,-1.7507,-1.7865,-1.7863,-1.7837,-1.7822,-1.7797,-1.7781,-1.7767,-1.7746,-1.7723,-1.7701,-1.7683,-1.7656,-1.7622,-1.7594,-1.7572,-1.756,-1.7552,-1.757,-1.7552,-1.75,-1.7491,-1.7482,-1.7481,-1.7569,-1.7569,-1.761,-1.761,-1.761]},{"header":{"parameterUnit":"m.s-1","parameterCategory":1,"la1":30.2991,"la2":30.254,"lo1":-89.0895,"lo2":-89.0444,"dy":0.0017,"dx":0.0017,"nx":28,"ny":28,"refTime":"2024-05-16T03:00:00:Z","depth":0,"parameterNumber":3,"parameterNumberName":"V-component_of_WINDS"},"data":[0,0,0,0,0,0,0,0,0,0,0,0,0,0,0,0,0,0,0,0,0,0,0,0,0,0,0,0,0,0,0,0,0,0,0,0,0,0,0,0,0,0,0,0,0,0,0,0,0,0,0,0,0,0,0,0,0,0,0.0899,0.0899,0,0.0876,0.0876,0.0875,0.0821,0.082,0.0819,0.0818,0.0795,0.0795,0.0796,0,0,0,0,0,0,0,0,0,0,0,0,0,0.0899,0.09,0.0899,0.0899,0.0899,0.0876,0.0876,0.0875,0.0822,0.082,0.0819,0.0818,0.0795,0.0795,0.0796,0,0,0,0,0,0,0,0,0,0,0,0,0,0.089,0.09,0.0899,0.0869,0.0866,0.0876,0.0876,0.0875,0.0822,0.082,0.0819,0.0817,0.0795,0.0795,0.0796,0.0833,0,0,0.0798,0.0798,0,0,0,0,0,0,0,0,0.0891,0.089,0.0874,0.0871,0.0868,0.085,0.0867,0.0861,0.0822,0.0839,0.0818,0.0816,0.0815,0.0814,0.0813,0.0832,0.0831,0.0798,0.0798,0.0799,0.0799,0,0,0,0,0,0,0,0.0891,0.0891,0.089,0.0874,0.087,0.0857,0.0854,0.0866,0.0836,0.0837,0.0833,0.0831,0.0813,0.0812,0.0812,0.0831,0.0798,0.0798,0.0799,0.0799,0.0883,0.0884,0,0,0,0,0,0,0.0896,0.0892,0.0891,0.0889,0.0875,0.0859,0.0855,0.0857,0.0836,0.0831,0.0833,0.0829,0.0812,0.0811,0.0811,0.0855,0.0799,0.0799,0.08,0.0881,0.0883,0.0885,0,0,0,0,0,0,0.0897,0.0897,0.0892,0.089,0.0888,0.0861,0.0863,0.0858,0.0857,0.0833,0.0827,0.0838,0.0811,0.081,0.0829,0.0854,0.0799,0.08,0.0879,0.0882,0.0884,0.0944,0,0,0,0,0,0,0.0897,0.0897,0.0911,0.089,0.0888,0.091,0.0865,0.0859,0.0859,0.0853,0.0836,0.0831,0.0809,0.0828,0.0829,0.0854,0.0801,0.0876,0.088,0.0883,0.0939,0.0948,0.0956,0,0,0,0,0,0.0897,0.0928,0.0912,0.0912,0.0904,0.0911,0.091,0.0884,0.0861,0.0875,0.0859,0.0832,0.0851,0.083,0.0831,0.0856,0.0875,0.0879,0.0883,0.0936,0.0946,0.0955,0,0,0,0,0,0,0.0952,0.0925,0.0906,0.0931,0.0924,0.0902,0.0919,0.0896,0.0895,0.089,0.0858,0.0854,0.0878,0.0869,0.0847,0.0893,0.0858,0.0863,0.0898,0.0908,0.0916,0.0919,0.0801,0,0,0,0,0,0.0967,0.0974,0.095,0.0975,0.0972,0.0946,0.0948,0.0929,0.092,0.0916,0.0902,0.0895,0.0899,0.0903,0.0905,0.0937,0.0934,0.0955,0.0963,0.097,0.0975,0.0994,0.1003,0.0899,0.0899,0.0899,0,0,0.0998,0.0984,0.099,0.0985,0.0977,0.0987,0.0944,0.0955,0.0962,0.0918,0.0936,0.0925,0.0915,0.0941,0.0952,0.0934,0.1003,0.0975,0.0981,0.0982,0.0999,0.1009,0.1018,0.0902,0.0901,0.0901,0,0,0.106,0.1049,0.1069,0.1063,0.1051,0.1034,0.1039,0.1021,0.1013,0.1029,0.0998,0.1005,0.1013,0.1008,0.1006,0.1068,0.1044,0.107,0.1113,0.1132,0.114,0.1147,0.1172,0.118,0.1074,0.1075,0.1075,0,0.11,0.1112,0.1083,0.1097,0.1096,0.1057,0.1079,0.1073,0.1064,0.1065,0.1045,0.1055,0.1045,0.1071,0.1087,0.1086,0.1092,0.1072,0.1141,0.1148,0.1154,0.1177,0.1186,0.1078,0.1078,0.1077,0.1077,0,0.1163,0.1172,0.119,0.1183,0.1184,0.1201,0.1176,0.1181,0.1162,0.1147,0.1166,0.1153,0.1154,0.1158,0.1139,0.1182,0.1171,0.1147,0.1112,0.1168,0.1189,0.1198,0.1083,0.1082,0.1081,0.108,0,0,0.1259,0.1236,0.1243,0.124,0.1225,0.1232,0.1249,0.1249,0.1255,0.125,0.1264,0.1272,0.125,0.1248,0.1228,0.1245,0.1298,0.1218,0.1217,0.1235,0.1347,0.1367,0.1378,0.1281,0.1282,0.1284,0.1349,0,0.1319,0.1345,0.132,0.1352,0.1362,0.1326,0.134,0.1334,0.1321,0.1327,0.1313,0.132,0.1289,0.1288,0.1302,0.1288,0.132,0.1283,0.1296,0.1296,0.1301,0.1388,0.1409,0.1471,0.1356,0.1358,0.1359,0,0.1392,0.1391,0.1425,0.141,0.1413,0.1426,0.1426,0.1432,0.1424,0.1414,0.1413,0.1389,0.1406,0.1371,0.1394,0.1369,0.1373,0.1367,0.1369,0.1371,0.1332,0.1395,0.149,0.15,0.1371,0.137,0.1369,0,0.1461,0.1468,0.149,0.1488,0.1471,0.1481,0.1475,0.1465,0.1468,0.1468,0.1469,0.1471,0.1472,0.1474,0.1452,0.1428,0.1479,0.1442,0.1473,0.1474,0.1487,0.1486,0.1586,0.1486,0.1485,0.1485,0.1485,0,0.1532,0.1554,0.1521,0.1535,0.1559,0.153,0.1556,0.1545,0.1538,0.1549,0.1517,0.1529,0.1498,0.1507,0.1489,0.1513,0.1513,0.1506,0.1502,0.1511,0.1512,0.1514,0.151,0.1488,0.1487,0.1487,0.1486,0,0.1614,0.1592,0.1614,0.1596,0.1592,0.1612,0.1597,0.1609,0.1594,0.161,0.1612,0.1589,0.1598,0.1576,0.1581,0.1569,0.1604,0.1591,0.1607,0.1604,0.1637,0.1635,0.1744,0.1757,0.1646,0.1647,0.1648,0,0.1662,0.1678,0.1663,0.1668,0.1664,0.1673,0.1676,0.1648,0.1653,0.1646,0.166,0.1666,0.167,0.1687,0.1671,0.1676,0.1665,0.1702,0.1665,0.1674,0.1668,0.1668,0.1671,0.1711,0.1712,0.1713,0.1714,0,0.1749,0.1738,0.1743,0.1745,0.175,0.175,0.1748,0.1755,0.1726,0.1733,0.1742,0.1745,0.1751,0.1759,0.176,0.1754,0.1731,0.1725,0.1733,0.1743,0.1753,0.1751,0.163,0.1724,0.1723,0.1722,0.1721,0.1721,0.1817,0.1831,0.1823,0.183,0.1826,0.1826,0.1837,0.1824,0.1831,0.1835,0.1818,0.1831,0.1825,0.1824,0.1821,0.1832,0.1815,0.1826,0.1829,0.1833,0.1839,0.175,0.1832,0.1831,0.1831,0.1831,0.1831,0,0.1905,0.1898,0.1905,0.1904,0.1911,0.1887,0.1884,0.1891,0.1904,0.1899,0.1904,0.1916,0.1924,0.1909,0.1915,0.1926,0.1916,0.1929,0.1929,0.1929,0.1853,0.1847,0.1938,0.1938,0.1938,0.1938,0.1938,0.1938,0.1951,0.1975,0.1963,0.1985,0.1977,0.1991,0.1992,0.1992,0.1988,0.2003,0.2009,0.2,0.1992,0.1997,0.2004,0.1999,0.2004,0.2022,0.2014,0.1944,0.1934,0.1924,0.1918,0.2023,0.2023,0.2089,0.209,0.209]}]]